Voltar ao catálogo

COSMOS 2251 DEB

AtivoLEO
NORAD 40239·DEBRIS·🇷🇺 Russia

Lançado Jun 16, 1993 de Plesetsk Cosmodrome

Loading…

Próximas Passagens (próximas 24 horas)

TLE

EnvelhecendoSource: Space-Track

Época: Sep 9, 2026, 23:41 UTC

1 40239U 93036BVU 26252.98707269  .00000835  00000-0  16142-3 0  9997
2 40239  74.0282 115.9398 0085144 160.2234 267.9449 14.62793324635768

Acompanhe COSMOS 2251 DEB em tempo real com AllMySat

Download on the App Store